Puyallup, WA

7:29 PM PDT on June 24, 2018 (GMT -0700)
Pierce County - Thun Field

Weather History for KPLU - September, 2017

Change the Weather History Date:

Saturday, September 2, 2017

  Actual Average (KTCM) Record (KTCM)
Temperature  
Mean Temperature 71 °F -  
Max Temperature 91 °F 71 °F 96 °F (1988)
Min Temperature 51 °F 48 °F 37 °F (1960)
Cooling Degree Days 6    
Growing Degree Days 21 (Base 50)    
Moisture  
Dew Point 54 °F    
Average Humidity 61    
Maximum Humidity 94    
Minimum Humidity 27    
Precipitation  
Precipitation 0.00 in - - ()
Sea Level Pressure  
Sea Level Pressure 30.00 in    
Wind  
Wind Speed - (North)    
Max Wind Speed -    
Max Gust Speed -    
Visibility 10 miles    
Events      
Averages and records for this station are not official NWS values.
T = Trace of Precipitation, MM = Missing Value Source: NWS Daily Summary

Daily Weather History Graph

Daily Weather History Graph

Search for Another Location

Airport or City:

Astronomy

Sep. 02, 2017 Rise Set
Actual Time 6:30 AM PDT 7:46 PM PDT
Civil Twilight 5:58 AM PDT 8:17 PM PDT
Nautical Twilight 5:20 AM PDT 8:55 PM PDT
Astronomical Twilight 4:40 AM PDT 9:35 PM PDT
Moon 5:58 PM PDT (9/2) 2:41 AM PDT (9/2)
Length of Visible Light 14h 18m
Length of Day
13h 16m
Waxing Gibbous, 88% of the Moon is Illuminated
Sep 2
Waxing Gibbous
Sep 6
Full
Sep 12
Last Quarter
Sep 19
New
Sep 27
First Quarter

Hourly Weather History & Observations

Time (PDT) Temp. Heat Index Dew Point Humidity Pressure Visibility Wind Dir Wind Speed Gust Speed Precip Events Conditions
12:15 AM 59.0 °F - 50.0 °F 72% 30.04 in 10.0 mi North - - N/A   Clear
12:35 AM 57.2 °F - 50.0 °F 77% 30.04 in 10.0 mi North - - N/A   Clear
12:55 AM 59.0 °F - 50.0 °F 72% 30.04 in 10.0 mi North - - N/A   Clear
1:15 AM 57.2 °F - 50.0 °F 77% 30.04 in 10.0 mi North - - N/A   Clear
1:35 AM 57.2 °F - 50.0 °F 77% 30.04 in 10.0 mi North - - N/A   Clear
1:55 AM 57.2 °F - 50.0 °F 77% 30.04 in 10.0 mi North - - N/A   Clear
2:15 AM 55.4 °F - 50.0 °F 82% 30.03 in 10.0 mi North - - N/A   Clear
2:35 AM 55.4 °F - 50.0 °F 82% 30.03 in 10.0 mi North - - N/A   Clear
2:55 AM 55.4 °F - 50.0 °F 82% 30.03 in 10.0 mi North - - N/A   Clear
3:15 AM 55.4 °F - 50.0 °F 82% 30.03 in 10.0 mi North - - N/A   Clear
3:35 AM 55.4 °F - 50.0 °F 82% 30.03 in 10.0 mi North - - N/A   Clear
3:55 AM 53.6 °F - 50.0 °F 88% 30.03 in 10.0 mi North - - N/A   Clear
4:15 AM 55.4 °F - 51.8 °F 88% 30.03 in 10.0 mi North - - N/A   Clear
4:35 AM 53.6 °F - 51.8 °F 94% 30.03 in 10.0 mi North - - N/A   Clear
4:55 AM 53.6 °F - 50.0 °F 88% 30.03 in 10.0 mi North - - N/A   Clear
5:15 AM 53.6 °F - 51.8 °F 94% 30.02 in 10.0 mi North - - N/A   Clear
5:35 AM 53.6 °F - 51.8 °F 94% 30.02 in 10.0 mi North - - N/A   Clear
5:55 AM 51.8 °F - 50.0 °F 94% 30.02 in 10.0 mi North - - N/A   Clear
6:15 AM 53.6 °F - 51.8 °F 94% 30.02 in 10.0 mi North - - N/A   Clear
6:35 AM 53.6 °F - 51.8 °F 94% 30.03 in 10.0 mi North - - N/A   Clear
6:55 AM 53.6 °F - 51.8 °F 94% 30.03 in 10.0 mi North - - N/A   Clear
7:15 AM 53.6 °F - 51.8 °F 94% 30.03 in 10.0 mi North - - N/A   Clear
7:35 AM 55.4 °F - 51.8 °F 88% 30.03 in 10.0 mi North - - N/A   Clear
7:55 AM 59.0 °F - 53.6 °F 82% 30.03 in 10.0 mi North - - N/A   Clear
8:15 AM 64.4 °F - 53.6 °F 68% 30.03 in 10.0 mi North - - N/A   Clear
8:35 AM 66.2 °F - 53.6 °F 64% 30.03 in 10.0 mi North - - N/A   Clear
8:55 AM 68.0 °F - 53.6 °F 60% 30.03 in 10.0 mi North - - N/A   Clear
9:15 AM 69.8 °F - 53.6 °F 56% 30.03 in 10.0 mi North - - N/A   Clear
9:35 AM 71.6 °F - 53.6 °F 53% 30.03 in 10.0 mi North - - N/A   Clear
9:55 AM 73.4 °F - 53.6 °F 50% 30.03 in 10.0 mi North - - N/A   Clear
10:15 AM 75.2 °F - 53.6 °F 47% 30.03 in 10.0 mi North - - N/A   Clear
10:35 AM 75.2 °F - 51.8 °F 44% 30.04 in 10.0 mi North - - N/A   Clear
10:55 AM 77.0 °F - 51.8 °F 41% 30.04 in 10.0 mi North - - N/A   Clear
11:15 AM 78.8 °F - 53.6 °F 42% 30.04 in 10.0 mi North - - N/A   Clear
11:35 AM 78.8 °F - 51.8 °F 39% 30.03 in 10.0 mi North - - N/A   Clear
11:55 AM 80.6 °F - 51.8 °F 37% 30.03 in 10.0 mi North - - N/A   Clear
12:15 PM 82.4 °F 81.4 °F 53.6 °F 37% 30.02 in 10.0 mi North - - N/A   Clear
12:35 PM 84.2 °F 82.8 °F 53.6 °F 35% 30.02 in 10.0 mi North - - N/A   Clear
12:55 PM 84.2 °F - 51.8 °F 33% 30.02 in 10.0 mi North - - N/A   Clear
1:15 PM 86.0 °F 84.2 °F 53.6 °F 33% 30.01 in 10.0 mi North - - N/A   Clear
1:35 PM 86.0 °F - 51.8 °F 31% 30.01 in 10.0 mi North - - N/A   Clear
1:55 PM 87.8 °F - 51.8 °F 29% 30.00 in 10.0 mi North - - N/A   Clear
2:15 PM 89.6 °F 87.3 °F 53.6 °F 29% 30.00 in 10.0 mi North - - N/A   Clear
2:35 PM 87.8 °F 85.7 °F 53.6 °F 31% 29.99 in 10.0 mi North - - N/A   Clear
2:55 PM 87.8 °F 85.7 °F 53.6 °F 31% 29.98 in 10.0 mi North - - N/A   Clear
3:15 PM 89.6 °F 87.3 °F 53.6 °F 29% 29.98 in 10.0 mi North - - N/A   Clear
3:35 PM 89.6 °F 87.3 °F 53.6 °F 29% 29.98 in 10.0 mi North - - N/A   Clear
3:55 PM 89.6 °F 87.3 °F 53.6 °F 29% 29.97 in 10.0 mi North - - N/A   Clear
4:15 PM 89.6 °F 87.3 °F 53.6 °F 29% 29.97 in 10.0 mi North - - N/A   Clear
4:35 PM 91.4 °F 89.1 °F 53.6 °F 28% 29.97 in 10.0 mi North - - N/A   Clear
4:55 PM 89.6 °F 87.3 °F 53.6 °F 29% 29.96 in 10.0 mi North - - N/A   Clear
5:15 PM 89.6 °F - 51.8 °F 27% 29.96 in 10.0 mi North - - N/A   Clear
5:35 PM 87.8 °F - 51.8 °F 29% 29.96 in 10.0 mi North - - N/A   Clear
5:55 PM 87.8 °F - 51.8 °F 29% 29.96 in 10.0 mi North - - N/A   Clear
6:15 PM 87.8 °F - 51.8 °F 29% 29.95 in 10.0 mi North - - N/A   Clear
6:35 PM 86.0 °F 84.2 °F 53.6 °F 33% 29.95 in 10.0 mi North - - N/A   Clear
6:55 PM 84.2 °F 83.0 °F 55.4 °F 37% 29.95 in 10.0 mi North - - N/A   Clear
7:15 PM 82.4 °F 82.0 °F 57.2 °F 42% 29.95 in 10.0 mi North - - N/A   Clear
7:35 PM 80.6 °F 81.1 °F 59.0 °F 48% 29.95 in 10.0 mi North - - N/A   Clear
7:55 PM 77.0 °F - 59.0 °F 54% 29.96 in 10.0 mi North - - N/A   Clear
8:15 PM 73.4 °F - 60.8 °F 65% 29.97 in 10.0 mi North - - N/A   Clear
8:35 PM 71.6 °F - 60.8 °F 69% 29.97 in 10.0 mi North - - N/A   Clear
8:55 PM 69.8 °F - 60.8 °F 73% 29.97 in 10.0 mi North - - N/A   Clear
9:15 PM 69.8 °F - 60.8 °F 73% 29.98 in 10.0 mi North - - N/A   Clear
9:35 PM 69.8 °F - 60.8 °F 73% 29.98 in 10.0 mi North - - N/A   Clear
9:55 PM 68.0 °F - 59.0 °F 73% 29.98 in 10.0 mi North - - N/A   Clear
10:15 PM 66.2 °F - 60.8 °F 83% 29.98 in 10.0 mi North - - N/A   Clear
10:35 PM 66.2 °F - 59.0 °F 78% 29.97 in 10.0 mi North - - N/A   Clear
10:55 PM 64.4 °F - 59.0 °F 83% 29.97 in 10.0 mi North - - N/A   Clear
11:15 PM 64.4 °F - 59.0 °F 83% 29.97 in 10.0 mi North - - N/A   Clear
11:35 PM 62.6 °F - 59.0 °F 88% 29.97 in 10.0 mi North - - N/A   Clear
11:55 PM 62.6 °F - 59.0 °F 88% 29.97 in 10.0 mi North - - N/A   Clear